Location: Deerlick Astronomy Village
(33.5614°N, 82.7631°W)
Time: 22:08:30
(UTC-05:00)

Hubble Space Telescope - Visible Passes

Search period start: 24 January 2020 00:00
Search period end: 03 February 2020 00:00
Orbit: 536 x 540 km, 28.5° (Epoch: 24 January)

Date Brightness Start Highest point End Pass type
(mag) Time Alt. Az. Time Alt. Az. Time Alt. Az.
29 Jan 3.5 05:30:10 10° S 05:31:25 11° SSE 05:32:40 10° SE visible
30 Jan 3.3 05:20:06 14° SSE 05:20:41 14° SSE 05:22:52 10° SE visible
30 Jan 2.3 06:57:41 10° SW 07:01:22 32° S 07:05:03 10° ESE visible
31 Jan 3.2 05:10:25 17° SSE 05:10:25 17° SSE 05:12:41 10° ESE visible
31 Jan 2.1 06:46:55 10° WSW 06:50:42 35° S 06:54:28 10° ESE visible
01 Feb 3.3 05:00:39 17° SE 05:00:39 17° SE 05:02:20 10° ESE visible
01 Feb 1.9 06:36:12 10° WSW 06:40:01 37° S 06:43:51 10° ESE visible
02 Feb 3.5 04:50:46 16° ESE 04:50:46 16° ESE 04:51:53 10° ESE visible
02 Feb 1.8 06:26:07 14° WSW 06:29:22 39° S 06:33:14 10° ESE visible
